Previsão horária em Abercanaid

Hoje, 13 Abril, Terça-feira

Tempo Temperatura Precipitação Vento Pressão Humidade
00:00 +1°C° 0 mm 1 m/s 748 mmHg 87%
01:00 +1°C° 0 mm 1 m/s 748 mmHg 86%
02:00 0°C° 0 mm 1 m/s 748 mmHg 86%
03:00 0°C° 0 mm 1 m/s 748 mmHg 85%
04:00 +1°C° 0 mm 1 m/s 748 mmHg 84%
05:00 0°C° 0 mm 0 m/s 748 mmHg 84%
06:00 0°C° 0 mm 0 m/s 749 mmHg 83%
07:00 +2°C° 0 mm 0 m/s 749 mmHg 79%
08:00 +4°C° 0 mm 0 m/s 749 mmHg 74%
09:00 +6°C° 0 mm 0 m/s 749 mmHg 70%
10:00 +7°C° 0 mm 1 m/s 749 mmHg 69%
11:00 +8°C° 0 mm 1 m/s 749 mmHg 67%
12:00 +9°C° 0 mm 1 m/s 749 mmHg 66%
13:00 +9°C° 0.1 mm 1 m/s 749 mmHg 65%
14:00 +9°C° 0.1 mm 1 m/s 749 mmHg 65%
15:00 +10°C° 0.1 mm 1 m/s 749 mmHg 65%
16:00 +9°C° 0.2 mm 1 m/s 748 mmHg 70%
17:00 +8°C° 0.2 mm 1 m/s 748 mmHg 76%
18:00 +8°C° 0.2 mm 1 m/s 748 mmHg 81%
19:00 +7°C° 0.1 mm 1 m/s 749 mmHg 84%
20:00 +5°C° 0.1 mm 1 m/s 749 mmHg 86%
21:00 +4°C° 0.1 mm 1 m/s 749 mmHg 89%
22:00 +4°C° 0 mm 1 m/s 749 mmHg 89%
23:00 +3°C° 0 mm 1 m/s 749 mmHg 89%

Amanhã, 14 Abril, Quarta-feira

Tempo Temperatura Precipitação Vento Pressão Humidade
00:00 +3°C° 0 mm 1 m/s 749 mmHg 90%
01:00 +3°C° 0 mm 1 m/s 749 mmHg 90%
02:00 +3°C° 0 mm 1 m/s 749 mmHg 90%
03:00 +2°C° 0 mm 1 m/s 749 mmHg 91%
04:00 +2°C° 0 mm 1 m/s 749 mmHg 91%
05:00 +2°C° 0 mm 1 m/s 749 mmHg 91%
06:00 +2°C° 0 mm 1 m/s 749 mmHg 91%
07:00 +3°C° 0 mm 2 m/s 749 mmHg 86%
08:00 +5°C° 0 mm 2 m/s 749 mmHg 80%
09:00 +7°C° 0 mm 2 m/s 750 mmHg 75%
10:00 +7°C° 0 mm 2 m/s 750 mmHg 72%
11:00 +8°C° 0 mm 3 m/s 749 mmHg 69%
12:00 +8°C° 0 mm 3 m/s 749 mmHg 67%
13:00 +8°C° 0 mm 3 m/s 749 mmHg 65%
14:00 +8°C° 0 mm 3 m/s 749 mmHg 64%
15:00 +8°C° 0 mm 3 m/s 749 mmHg 63%
16:00 +8°C° 0 mm 2 m/s 749 mmHg 64%
17:00 +8°C° 0 mm 2 m/s 749 mmHg 66%
18:00 +7°C° 0 mm 2 m/s 749 mmHg 67%
19:00 +6°C° 0 mm 2 m/s 749 mmHg 71%
20:00 +5°C° 0 mm 1 m/s 749 mmHg 74%
21:00 +4°C° 0 mm 1 m/s 750 mmHg 78%
22:00 +3°C° 0 mm 1 m/s 750 mmHg 80%
23:00 +3°C° 0 mm 1 m/s 750 mmHg 82%

Depois de amanhã, 15 Abril, Quinta-feira

Tempo Temperatura Precipitação Vento Pressão Humidade
00:00 +2°C° 0 mm 1 m/s 750 mmHg 84%
01:00 +2°C° 0 mm 1 m/s 749 mmHg 85%
02:00 +1°C° 0 mm 1 m/s 749 mmHg 86%
03:00 +1°C° 0 mm 1 m/s 749 mmHg 87%
04:00 +1°C° 0 mm 1 m/s 749 mmHg 87%
05:00 -1°C° 0 mm 2 m/s 749 mmHg 88%
06:00 -1°C° 0 mm 2 m/s 750 mmHg 89%
07:00 +2°C° 0 mm 2 m/s 750 mmHg 82%
08:00 +3°C° 0 mm 2 m/s 750 mmHg 76%
09:00 +4°C° 0 mm 3 m/s 750 mmHg 70%
10:00 +5°C° 0 mm 3 m/s 750 mmHg 64%
11:00 +6°C° 0 mm 4 m/s 749 mmHg 59%
12:00 +7°C° 0 mm 4 m/s 749 mmHg 54%
13:00 +7°C° 0 mm 4 m/s 749 mmHg 52%
14:00 +7°C° 0 mm 4 m/s 749 mmHg 51%
15:00 +8°C° 0 mm 3 m/s 748 mmHg 49%
16:00 +8°C° 0 mm 3 m/s 748 mmHg 56%
17:00 +7°C° 0 mm 3 m/s 748 mmHg 62%
18:00 +5°C° 0 mm 3 m/s 748 mmHg 68%
19:00 +4°C° 0 mm 3 m/s 748 mmHg 74%
20:00 +3°C° 0 mm 2 m/s 748 mmHg 79%
21:00 +1°C° 0 mm 2 m/s 748 mmHg 85%
22:00 +1°C° 0 mm 2 m/s 749 mmHg 87%
23:00 -1°C° 0 mm 2 m/s 749 mmHg 89%

16 Abril, Sexta-feira

Tempo Temperatura Precipitação Vento Pressão Humidade
00:00 -1°C° 0 mm 2 m/s 749 mmHg 91%
01:00 -2°C° 0 mm 2 m/s 749 mmHg 91%
02:00 -2°C° 0 mm 2 m/s 749 mmHg 92%
03:00 -3°C° 0 mm 2 m/s 748 mmHg 92%
04:00 -3°C° 0 mm 2 m/s 749 mmHg 91%
05:00 -3°C° 0 mm 2 m/s 749 mmHg 90%
06:00 -2°C° 0 mm 2 m/s 749 mmHg 89%
07:00 0°C° 0 mm 3 m/s 749 mmHg 78%
08:00 +2°C° 0 mm 3 m/s 749 mmHg 66%
09:00 +4°C° 0 mm 4 m/s 749 mmHg 55%
10:00 +5°C° 0 mm 4 m/s 749 mmHg 52%
11:00 +6°C° 0 mm 4 m/s 749 mmHg 50%
12:00 +8°C° 0 mm 3 m/s 749 mmHg 47%
13:00 +8°C° 0 mm 3 m/s 748 mmHg 48%
14:00 +8°C° 0 mm 3 m/s 748 mmHg 49%
15:00 +9°C° 0 mm 3 m/s 748 mmHg 50%
16:00 +8°C° 0 mm 2 m/s 748 mmHg 56%
17:00 +7°C° 0 mm 2 m/s 748 mmHg 62%
18:00 +8°C° 0 mm 1 m/s 748 mmHg 68%
19:00 +6°C° 0 mm 1 m/s 748 mmHg 71%
20:00 +5°C° 0 mm 1 m/s 748 mmHg 73%
21:00 +4°C° 0 mm 1 m/s 748 mmHg 75%
22:00 +3°C° 0 mm 1 m/s 748 mmHg 77%
23:00 +3°C° 0 mm 1 m/s 748 mmHg 79%

17 Abril, Sábado

Tempo Temperatura Precipitação Vento Pressão Humidade
00:00 +2°C° 0 mm 1 m/s 747 mmHg 81%
01:00 +2°C° 0 mm 1 m/s 747 mmHg 83%
02:00 +2°C° 0 mm 1 m/s 747 mmHg 85%
03:00 +2°C° 0 mm 1 m/s 747 mmHg 87%
04:00 +2°C° 0 mm 1 m/s 747 mmHg 86%
05:00 +2°C° 0 mm 1 m/s 747 mmHg 85%
06:00 +2°C° 0 mm 1 m/s 746 mmHg 84%
07:00 +3°C° 0 mm 2 m/s 746 mmHg 79%
08:00 +4°C° 0 mm 2 m/s 746 mmHg 74%
09:00 +6°C° 0 mm 2 m/s 746 mmHg 69%
10:00 +7°C° 0 mm 2 m/s 746 mmHg 67%
11:00 +7°C° 0 mm 2 m/s 746 mmHg 65%
12:00 +8°C° 0 mm 2 m/s 746 mmHg 63%
13:00 +8°C° 0 mm 2 m/s 745 mmHg 63%
14:00 +8°C° 0 mm 2 m/s 745 mmHg 63%
15:00 +8°C° 0 mm 2 m/s 745 mmHg 63%
16:00 +8°C° 0 mm 2 m/s 745 mmHg 68%
17:00 +8°C° 0 mm 1 m/s 744 mmHg 72%
18:00 +8°C° 0 mm 1 m/s 744 mmHg 77%
19:00 +7°C° 0 mm 1 m/s 744 mmHg 79%
20:00 +6°C° 0 mm 1 m/s 744 mmHg 82%
21:00 +6°C° 0 mm 1 m/s 745 mmHg 84%
22:00 +6°C° 0 mm 1 m/s 744 mmHg 85%
23:00 +6°C° 0 mm 1 m/s 744 mmHg 86%

18 Abril, Domingo

Tempo Temperatura Precipitação Vento Pressão Humidade
00:00 +6°C° 0 mm 1 m/s 744 mmHg 86%
01:00 +5°C° 0 mm 1 m/s 744 mmHg 88%
02:00 +5°C° 0 mm 1 m/s 744 mmHg 89%
03:00 +5°C° 0 mm 1 m/s 744 mmHg 90%
04:00 +5°C° 0 mm 1 m/s 744 mmHg 90%
05:00 +5°C° 0 mm 1 m/s 743 mmHg 91%
06:00 +5°C° 0 mm 1 m/s 743 mmHg 91%
07:00 +6°C° 0 mm 1 m/s 743 mmHg 85%
08:00 +6°C° 0 mm 2 m/s 744 mmHg 80%
09:00 +7°C° 0 mm 2 m/s 744 mmHg 74%
10:00 +8°C° 0 mm 3 m/s 744 mmHg 69%
11:00 +9°C° 0 mm 3 m/s 743 mmHg 64%
12:00 +10°C° 0 mm 4 m/s 743 mmHg 59%
13:00 +10°C° 0 mm 4 m/s 743 mmHg 61%
14:00 +10°C° 0 mm 4 m/s 743 mmHg 63%
15:00 +10°C° 0 mm 4 m/s 743 mmHg 65%
16:00 +8°C° 0 mm 4 m/s 742 mmHg 69%
17:00 +9°C° 0 mm 3 m/s 742 mmHg 73%
18:00 +8°C° 0 mm 3 m/s 742 mmHg 76%
19:00 +7°C° 0 mm 3 m/s 742 mmHg 79%
20:00 +5°C° 0 mm 3 m/s 742 mmHg 82%
21:00 +4°C° 0 mm 3 m/s 742 mmHg 84%
22:00 +4°C° 0 mm 3 m/s 742 mmHg 84%
23:00 +4°C° 0 mm 3 m/s 741 mmHg 84%
Mostrar mais

Necessitamos do seu Consentimento

A Meteoprog e os seus Fornecedores de Serviços podem armazenar e aceder a dados pessoais como cookies, identificadores do dispositivo ou outras tecnologias semelhantes existentes no seu dispositivo e processar estes dados para personalizar conteúdos e anúncios, assim como funcionalidades nas redes sociais e análise de tráfego.

  • Armazenar e/ou aceder a informações no seu dispositivo

    Os cookies, identificadores do dispositivo ou outras informações podem ser armazenados ou acedidos no seu dispositivo, para os fins acima indicados.

  • Anúncios e conteúdos personalizados, medição de anúncios e conteúdos, dados sobre o público-alvo e desenvolvimento de produtos

    Os anúncios e os conteúdos podem ser personalizados com base num perfil. Podem ser adicionados dados adicionais para uma maior personalização dos anúncios e dos conteúdos. A eficácia dos anúncios e dos conteúdos pode ser medida. Podem ser obtidas informações sobre o público que visualizou os anúncios e os conteúdos. Estes dados podem ser usados para desenvolver ou melhorar sistemas, softwares ou a experiência do utilizador.

Ao clicar em "Eu concordo”, permitirá o uso de cookies, identificadores do dispositivo e web beacons mencionados ou outras tecnologias semelhantes. As configurações do navegador do seu dispositivo podem ser alteradas.

Para certos fins, podem ser invocados interesses legítimos ao invés de consentimento. Pode ler mais informação sobre este assunto na nossa Política de Privacidade e Cookies.